ABS-2

Last updated on Thu Nov 21 2024 00:02:42 GMT+0000 (Coordinated Universal Time)

1 39508U 14006A 24325.20049228 -.00000085 00000+0 00000+0 0 9991 2 39508 0.0445 84.4218 0003868 149.7238 332.6770 1.00271508 39527
UTC large
Height (km)
Speed (km/s)
/
Latitude / Longitude
Inclination (degrees)
Orbital Period (minutes)
Azimuth
Elevation
Range (km)
Doppler Factor

Next 0 passes for location: London (51.5072 / 0.1276)

Sorry there are no passes over London.